Regional Weather Roundup
Issued by NWS

Home | Current Version | Previous Version | Graphics & Text | Print | Product List | Glossary On
Versions: 1 2 3 4 5 6 7 8 9 10 11 12 13 14 15 16 17 18 19 20 21 22 23 24 25 26 27 28 29 30 31 32 33 34 35 36 37 38 39 40 41 42 43 44 45 46 47 48 49 50
238
ASUS43 KLSX 281410
RWRMO

WEATHER SUMMARY FOR MISSOURI
NATIONAL WEATHER SERVICE SPRINGFIELD MO
900 AM CDT THU JUL 28 2016

NOTE: "FAIR" INDICATES FEW OR NO CLOUDS BELOW 12,000 FEET WITH NO
       SIGNIFICANT WEATHER AND/OR OBSTRUCTIONS TO VISIBILITY.
       CURRENT SKY AND/OR WEATHER CONDITIONS ARE NOT AVAILABLE FOR
       CHILLICOTHE AND FARMINGTON.

MOZ001>031-035>038-043-044-053-054-281500-
...NORTHERN AND WESTERN MISSOURI...

CITY           SKY/WX    TMP DP  RH WIND       PRES   REMARKS
KANSAS CTY INT CLOUDY    74  71  91 N7        29.99R
KANSAS C DTWN  CLOUDY    78  72  81 NW5       29.97R
LEE`S SUMMIT   SUNNY     78  73  84 NW3       29.98S
ST JOSEPH      MOSUNNY   75  71  87 N8        30.00R
CHILLICOTHE      N/A     81  71  71 CALM      29.97R
KIRKSVILLE     SUNNY     80  69  69 NW5       29.96S

$$
MOZ066>068-077>081-088>096-101>105-281500-
...SOUTHWEST MISSOURI...

CITY           SKY/WX    TMP DP  RH WIND       PRES   REMARKS
SPRINGFIELD    CLOUDY    78  72  81 W6        29.99R
JOPLIN         MOSUNNY   80  75  84 SW7       29.99S
BRANSON        MOSUNNY   75  73  94 CALM      30.01S

$$
MOZ032>034-039>042-045>050-055>058-069>072-281500-
...CENTRAL MISSOURI...

CITY           SKY/WX    TMP DP  RH WIND       PRES   REMARKS
COLUMBIA       SUNNY     80  74  81 NW6       29.95R
JEFFERSON CITY SUNNY     79  74  84 W6        29.94R
ROLLA          MOSUNNY   76  73  91 NW7       29.95R
SEDALIA        SUNNY     81  74  79 W7        29.97R
WHITEMAN AFB   MOSUNNY   80  75  86 W7        29.95S
OSAGE BEACH    PTSUNNY   79  75  87 W6        29.97R

$$
MOZ051-052-059>065-281500-
...EAST CENTRAL MISSOURI...

CITY           SKY/WX    TMP DP  RH WIND       PRES   REMARKS
ST LOUIS INTL  MOSUNNY   82  71  69 W8        29.91S
SPIRIT OF STL  MOSUNNY   79  73  82 W6        29.91R
ST CHARLES     SUNNY     80  75  84 W7        29.90S

$$
MOZ072>076-082>087-097>100-106>115-281500-
...SOUTH CENTRAL AND SOUTHEAST MISSOURI...

CITY           SKY/WX    TMP DP  RH WIND       PRES   REMARKS
CAPE GIRARDEAU CLOUDY    77  73  87 SW6       29.92S
FARMINGTON     CLOUDY    79  73  82 VRB7      29.95R
POPLAR BLUFF   SUNNY     78  72  81 VRB5      29.92S
WEST PLAINS    MOSUNNY   74  71  91 W7        29.99F

$$




USA.gov is the U.S. government's official web portal to all federal, state and local government web resources and services.